Regional Weather Roundup
Issued by NWS

Home | Current Version | Previous Version | Text Only | Print | Product List | Glossary Off
Versions: 1 2 3 4 5 6 7 8 9 10 11 12 13 14 15 16 17 18 19 20 21 22 23 24 25 26 27 28 29 30 31 32 33 34 35 36 37 38 39 40 41 42 43 44 45 46 47 48 49 50

000
ASUS43 KLSX 272307
RWRMO

WEATHER SUMMARY FOR MISSOURI
NATIONAL WEATHER SERVICE SPRINGFIELD MO
600 PM CDT THU APR 27 2017

NOTE: "FAIR" INDICATES FEW OR NO CLOUDS BELOW 12,000 FEET WITH NO
       SIGNIFICANT WEATHER AND/OR OBSTRUCTIONS TO VISIBILITY.
       CURRENT SKY AND/OR WEATHER CONDITIONS ARE NOT AVAILABLE FOR
       CHILLICOTHE AND FARMINGTON.

MOZ001>031-035>038-043-044-053-054-280000-
...NORTHERN AND WESTERN MISSOURI...

CITY           SKY/WX    TMP DP  RH WIND       PRES   REMARKS
KANSAS CTY INT CLOUDY    58  39  49 SW9       29.73R
KANSAS C DTWN  CLOUDY    61  38  42 W7        29.72S
LEE`S SUMMIT   CLOUDY    60  41  49 SW5       29.73S
ST JOSEPH      MOSUNNY   62  39  42 W8G20     29.71R
CHILLICOTHE      N/A     62  40  44 SW6       29.73R
KIRKSVILLE     MOSUNNY   58  41  53 SW8       29.73R

$$
MOZ066>068-077>081-088>096-101>105-280000-
...SOUTHWEST MISSOURI...

CITY           SKY/WX    TMP DP  RH WIND       PRES   REMARKS
SPRINGFIELD    MOSUNNY   64  41  42 S7        29.72R
JOPLIN         CLOUDY    64  45  49 E7        29.71S
BRANSON        PTSUNNY   64  45  48 SE10      29.73S

$$
MOZ032>034-039>042-045>050-055>058-069>072-280000-
...CENTRAL MISSOURI...

CITY           SKY/WX    TMP DP  RH WIND       PRES   REMARKS
COLUMBIA       PTSUNNY   59  44  57 SW10      29.76R
JEFFERSON CITY MOSUNNY   63  41  44 S6        29.75R
ROLLA          CLOUDY    62  44  51 S5        29.74R
SEDALIA        MOSUNNY   60  46  59 SW7       29.75S
WHITEMAN AFB   PTSUNNY   60  44  57 W5        29.72S
OSAGE BEACH    MOSUNNY   64  43  46 S5        29.74S

$$
MOZ051-052-059>065-280000-
...EAST CENTRAL MISSOURI...

CITY           SKY/WX    TMP DP  RH WIND       PRES   REMARKS
ST LOUIS INTL  MOSUNNY   62  42  47 SW3       29.76S
SPIRIT OF STL  MOSUNNY   61  44  53 S3        29.75R
ST CHARLES     SUNNY     60  43  53 CALM      29.75S

$$
MOZ072>076-082>087-097>100-106>115-280000-
...SOUTH CENTRAL AND SOUTHEAST MISSOURI...

CITY           SKY/WX    TMP DP  RH WIND       PRES   REMARKS
CAPE GIRARDEAU SUNNY     61  48  62 S8        29.80R
FARMINGTON     SUNNY     64  46  52 SE10      29.77R
POPLAR BLUFF   MOSUNNY   62  51  67 S8        29.79R
WEST PLAINS    SUNNY     65  42  43 S8        29.76S

$$




USA.gov is the U.S. government's official web portal to all federal, state and local government web resources and services.